GLO1776 SBRF-SBFN

Flight info

Callsign GLO1776
Flight time 0h 55m
Altitude 31000
Route FNR
Aircraft B738/M-SDGIJ1LRWY/SB1

Departure

Time 2026-04-21 23:40
Airport Recife/Guararapes - Gilberto Freyre International Airport (SBRF)

Arrival

Time 2026-04-22 00:35
Airport Fernando de Noronha Airport (SBFN)
Time Latitude Longitude Altitude Speed Heading
2026-04-21 23:16 -8.13446 -34.91818 42 ft 0 kts 71°
2026-04-21 23:26 -8.13450 -34.91830 42 ft 2 kts 71°
2026-04-21 23:27 -8.13455 -34.91844 42 ft 2 kts 71°
2026-04-21 23:27 -8.13460 -34.91858 42 ft 2 kts 69°
2026-04-21 23:27 -8.13465 -34.91872 42 ft 2 kts 71°
2026-04-21 23:27 -8.13469 -34.91885 42 ft 0 kts 70°
2026-04-21 23:28 -8.13470 -34.91891 42 ft 0 kts 124°
2026-04-21 23:28 -8.13467 -34.91894 42 ft 0 kts 165°
2026-04-21 23:28 -8.13461 -34.91896 42 ft 0 kts 162°
2026-04-21 23:30 -8.13469 -34.91888 42 ft 0 kts 119°
2026-04-21 23:30 -8.13467 -34.91885 42 ft 0 kts 40°
2026-04-21 23:30 -8.13457 -34.91888 42 ft 4 kts 336°
2026-04-21 23:31 -8.13415 -34.91907 42 ft 8 kts 340°
2026-04-21 23:31 -8.13349 -34.91932 42 ft 11 kts 341°
2026-04-21 23:31 -8.13257 -34.91962 42 ft 15 kts 343°
2026-04-21 23:31 -8.13141 -34.92000 42 ft 19 kts 341°
2026-04-21 23:32 -8.13002 -34.92046 42 ft 21 kts 342°
2026-04-21 23:32 -8.12860 -34.92092 42 ft 18 kts 342°
2026-04-21 23:32 -8.12738 -34.92133 42 ft 17 kts 341°
2026-04-21 23:32 -8.12613 -34.92175 42 ft 20 kts 341°
2026-04-21 23:33 -8.12470 -34.92222 42 ft 22 kts 342°
2026-04-21 23:33 -8.12332 -34.92267 42 ft 21 kts 342°
2026-04-21 23:33 -8.12179 -34.92317 42 ft 24 kts 340°
2026-04-21 23:33 -8.12011 -34.92375 43 ft 26 kts 342°
2026-04-21 23:34 -8.11824 -34.92435 43 ft 27 kts 342°
2026-04-21 23:34 -8.11687 -34.92480 43 ft 20 kts 341°
2026-04-21 23:34 -8.11638 -34.92497 43 ft 0 kts 334°
2026-04-21 23:35 -8.11621 -34.92506 43 ft 5 kts 330°
2026-04-21 23:35 -8.11592 -34.92525 43 ft 0 kts 320°
2026-04-21 23:35 -8.11580 -34.92535 43 ft 5 kts 320°
2026-04-21 23:36 -8.11536 -34.92573 43 ft 11 kts 319°
2026-04-21 23:36 -8.11465 -34.92634 43 ft 15 kts 320°
2026-04-21 23:36 -8.11402 -34.92694 43 ft 4 kts 307°
2026-04-21 23:36 -8.11407 -34.92717 43 ft 4 kts 199°
2026-04-21 23:37 -8.11457 -34.92707 43 ft 9 kts 161°
2026-04-21 23:37 -8.11525 -34.92685 43 ft 17 kts 162°
2026-04-21 23:37 -8.11674 -34.92636 43 ft 5 kts 162°
2026-04-21 23:37 -8.11675 -34.92636 43 ft 0 kts 162°
2026-04-21 23:39 -8.11746 -34.92613 43 ft 37 kts 161°
2026-04-21 23:39 -8.12215 -34.92458 42 ft 101 kts 162°
2026-04-21 23:39 -8.13063 -34.92178 43 ft 152 kts 162°
2026-04-21 23:39 -8.14188 -34.91805 148 ft 183 kts 162°
2026-04-21 23:40 -8.15397 -34.91416 864 ft 178 kts 162°
2026-04-21 23:40 -8.16546 -34.91054 1547 ft 177 kts 159°
2026-04-21 23:40 -8.17764 -34.90651 1985 ft 191 kts 159°
2026-04-21 23:40 -8.19060 -34.90224 2467 ft 202 kts 159°
2026-04-21 23:41 -8.20426 -34.89689 2830 ft 219 kts 145°
2026-04-21 23:41 -8.21455 -34.88535 3295 ft 230 kts 114°
2026-04-21 23:41 -8.21805 -34.86914 3722 ft 247 kts 90°
2026-04-21 23:41 -8.21469 -34.85193 4236 ft 261 kts 69°
2026-04-21 23:42 -8.20464 -34.83618 4805 ft 271 kts 53°
2026-04-21 23:42 -8.19192 -34.82197 4948 ft 274 kts 49°
2026-04-21 23:42 -8.17876 -34.80799 4962 ft 271 kts 50°
2026-04-21 23:42 -8.16590 -34.79385 4966 ft 271 kts 51°
2026-04-21 23:43 -8.15338 -34.77954 4968 ft 271 kts 52°
2026-04-21 23:43 -8.14101 -34.76513 4966 ft 271 kts 52°
2026-04-21 23:43 -8.12876 -34.75078 4968 ft 271 kts 52°
2026-04-21 23:43 -8.11644 -34.73637 4967 ft 271 kts 52°
2026-04-21 23:44 -8.10405 -34.72189 4968 ft 271 kts 52°
2026-04-21 23:44 -8.09177 -34.70755 4964 ft 271 kts 52°
2026-04-21 23:44 -8.07966 -34.69250 5136 ft 283 kts 55°
2026-04-21 23:44 -8.06804 -34.67688 6067 ft 277 kts 56°
2026-04-21 23:45 -8.05673 -34.66141 6837 ft 277 kts 56°
2026-04-21 23:45 -8.03332 -34.62968 8286 ft 284 kts 55°
2026-04-21 23:45 -8.02149 -34.61382 9017 ft 287 kts 55°
2026-04-21 23:46 -8.00934 -34.59755 9743 ft 291 kts 55°
2026-04-21 23:46 -7.99724 -34.58138 10397 ft 298 kts 55°
2026-04-21 23:46 -7.98428 -34.56402 10828 ft 314 kts 55°
2026-04-21 23:46 -7.97091 -34.54613 11255 ft 329 kts 54°
2026-04-21 23:47 -7.95699 -34.52752 11853 ft 337 kts 54°
2026-04-21 23:47 -7.94211 -34.50895 12569 ft 341 kts 49°
2026-04-21 23:47 -7.92387 -34.49363 13285 ft 346 kts 34°
2026-04-21 23:47 -7.90276 -34.48192 13991 ft 351 kts 28°
2026-04-21 23:48 -7.88032 -34.47125 14659 ft 357 kts 26°
2026-04-21 23:48 -7.85739 -34.46063 15347 ft 361 kts 26°
2026-04-21 23:48 -7.83467 -34.44982 16019 ft 365 kts 27°
2026-04-21 23:48 -7.81141 -34.43838 16661 ft 370 kts 28°
2026-04-21 23:49 -7.78838 -34.42677 17296 ft 374 kts 28°
2026-04-21 23:49 -7.76497 -34.41481 18104 ft 372 kts 28°
2026-04-21 23:49 -7.74230 -34.40319 19138 ft 363 kts 28°
2026-04-21 23:49 -7.72026 -34.39188 20133 ft 353 kts 28°
2026-04-21 23:50 -7.69883 -34.38089 21050 ft 345 kts 27°
2026-04-21 23:50 -7.67730 -34.36984 21632 ft 347 kts 27°
2026-04-21 23:50 -7.65562 -34.35871 22218 ft 348 kts 27°
2026-04-21 23:50 -7.63407 -34.34767 22686 ft 353 kts 27°
2026-04-21 23:51 -7.61202 -34.33638 23230 ft 355 kts 27°
2026-04-21 23:51 -7.58974 -34.32497 23741 ft 357 kts 27°
2026-04-21 23:51 -7.56745 -34.31357 24034 ft 366 kts 27°
2026-04-21 23:51 -7.54427 -34.30170 24128 ft 381 kts 27°
2026-04-21 23:52 -7.52024 -34.28942 24264 ft 394 kts 27°
2026-04-21 23:52 -7.49506 -34.27655 24408 ft 406 kts 26°
2026-04-21 23:52 -7.46928 -34.26338 24470 ft 421 kts 26°
2026-04-21 23:52 -7.44319 -34.25006 24683 ft 430 kts 26°
2026-04-21 23:53 -7.41600 -34.23618 25140 ft 433 kts 26°
2026-04-21 23:53 -7.38902 -34.22240 25573 ft 436 kts 27°
2026-04-21 23:53 -7.36218 -34.20869 26159 ft 435 kts 26°
2026-04-21 23:53 -7.33493 -34.19477 26764 ft 434 kts 27°
2026-04-21 23:54 -7.30796 -34.18099 27356 ft 432 kts 26°
2026-04-21 23:54 -7.28135 -34.16739 28032 ft 427 kts 26°
2026-04-21 23:54 -7.25482 -34.15382 28657 ft 424 kts 26°
2026-04-21 23:54 -7.22851 -34.14039 29288 ft 422 kts 26°
2026-04-21 23:55 -7.20225 -34.12696 29822 ft 421 kts 26°
2026-04-21 23:55 -7.17597 -34.11354 29901 ft 432 kts 27°
2026-04-21 23:55 -7.14877 -34.09965 29958 ft 442 kts 26°
2026-04-21 23:56 -7.09237 -34.07088 30262 ft 457 kts 27°
2026-04-21 23:56 -7.06433 -34.05658 30794 ft 455 kts 27°
2026-04-21 23:56 -7.03589 -34.04207 30943 ft 457 kts 27°
2026-04-21 23:57 -6.97921 -34.01444 30948 ft 441 kts 25°
2026-04-21 23:57 -6.92279 -33.98857 30947 ft 451 kts 24°
2026-04-21 23:58 -6.86561 -33.96243 30952 ft 448 kts 25°
2026-04-21 23:58 -6.80862 -33.93614 30961 ft 447 kts 25°
2026-04-21 23:59 -6.75192 -33.90982 30966 ft 449 kts 25°
2026-04-21 23:59 -6.69507 -33.88335 30966 ft 447 kts 25°
2026-04-22 00:00 -6.63853 -33.85699 30967 ft 449 kts 25°
2026-04-22 00:00 -6.58190 -33.83059 30967 ft 446 kts 25°
2026-04-22 00:01 -6.52491 -33.80403 30966 ft 448 kts 25°
2026-04-22 00:01 -6.46839 -33.77768 30966 ft 448 kts 25°
2026-04-22 00:02 -6.41166 -33.75124 30967 ft 447 kts 25°
2026-04-22 00:02 -6.35501 -33.72484 30966 ft 448 kts 25°
2026-04-22 00:03 -6.29854 -33.69854 30967 ft 448 kts 25°
2026-04-22 00:03 -6.24183 -33.67212 30967 ft 449 kts 25°
2026-04-22 00:04 -6.18486 -33.64561 30966 ft 448 kts 25°
2026-04-22 00:04 -6.12824 -33.61926 30967 ft 448 kts 25°
2026-04-22 00:05 -6.07144 -33.59283 30967 ft 449 kts 26°
2026-04-22 00:05 -6.01466 -33.56642 30967 ft 449 kts 26°
2026-04-22 00:06 -5.95813 -33.54013 30966 ft 448 kts 26°
2026-04-22 00:06 -5.90141 -33.51374 30967 ft 449 kts 26°
2026-04-22 00:07 -5.84429 -33.48719 30967 ft 449 kts 26°
2026-04-22 00:07 -5.78760 -33.46084 30967 ft 449 kts 26°
2026-04-22 00:08 -5.73161 -33.43313 30967 ft 448 kts 28°
2026-04-22 00:08 -5.67641 -33.40326 30967 ft 447 kts 29°
2026-04-22 00:09 -5.62172 -33.37331 30967 ft 448 kts 29°
2026-04-22 00:09 -5.56677 -33.34344 30967 ft 448 kts 29°
2026-04-22 00:10 -5.51177 -33.31375 30968 ft 449 kts 29°
2026-04-22 00:10 -5.45630 -33.28396 30968 ft 449 kts 29°
2026-04-22 00:11 -5.40101 -33.25433 30966 ft 450 kts 29°
2026-04-22 00:11 -5.34559 -33.22467 30968 ft 450 kts 29°
2026-04-22 00:12 -5.29037 -33.19514 30968 ft 449 kts 29°
2026-04-22 00:12 -5.23505 -33.16557 30968 ft 449 kts 29°
2026-04-22 00:13 -5.17963 -33.13594 30967 ft 450 kts 29°
2026-04-22 00:13 -5.12449 -33.10646 30966 ft 449 kts 29°
2026-04-22 00:14 -5.06922 -33.07693 30967 ft 450 kts 29°
2026-04-22 00:14 -5.01389 -33.04736 30965 ft 446 kts 29°
2026-04-22 00:14 -4.98664 -33.03280 30844 ft 435 kts 29°
2026-04-22 00:15 -4.96015 -33.01865 30515 ft 427 kts 29°
2026-04-22 00:15 -4.93385 -33.00460 30060 ft 429 kts 29°
2026-04-22 00:15 -4.90722 -32.99036 29504 ft 435 kts 28°
2026-04-22 00:15 -4.88044 -32.97605 28913 ft 434 kts 28°
2026-04-22 00:16 -4.85390 -32.96188 28330 ft 431 kts 28°
2026-04-22 00:16 -4.82753 -32.94780 27752 ft 429 kts 28°
2026-04-22 00:16 -4.80120 -32.93374 27158 ft 427 kts 28°
2026-04-22 00:16 -4.77510 -32.91981 26563 ft 425 kts 28°
2026-04-22 00:17 -4.74908 -32.90593 25968 ft 423 kts 28°
2026-04-22 00:17 -4.72304 -32.89203 25367 ft 421 kts 28°
2026-04-22 00:17 -4.69735 -32.87833 24777 ft 419 kts 28°
2026-04-22 00:17 -4.67134 -32.86444 24171 ft 417 kts 28°
2026-04-22 00:18 -4.64594 -32.85088 23580 ft 415 kts 28°
2026-04-22 00:18 -4.62057 -32.83734 22993 ft 413 kts 28°
2026-04-22 00:18 -4.59540 -32.82391 22404 ft 410 kts 29°
2026-04-22 00:18 -4.56994 -32.81033 21815 ft 408 kts 29°
2026-04-22 00:19 -4.54513 -32.79710 21229 ft 406 kts 29°
2026-04-22 00:19 -4.52030 -32.78385 20641 ft 404 kts 29°
2026-04-22 00:19 -4.49565 -32.77071 20028 ft 392 kts 30°
2026-04-22 00:19 -4.47205 -32.75814 19488 ft 378 kts 30°
2026-04-22 00:20 -4.44908 -32.74591 18936 ft 366 kts 30°
2026-04-22 00:20 -4.42696 -32.73412 18493 ft 358 kts 30°
2026-04-22 00:20 -4.40463 -32.72216 18040 ft 370 kts 30°
2026-04-22 00:20 -4.38172 -32.70987 17445 ft 373 kts 30°
2026-04-22 00:21 -4.35889 -32.69766 16876 ft 372 kts 30°
2026-04-22 00:21 -4.33606 -32.68549 16295 ft 369 kts 30°
2026-04-22 00:21 -4.31349 -32.67346 15746 ft 364 kts 30°
2026-04-22 00:21 -4.29119 -32.66158 15198 ft 359 kts 30°
2026-04-22 00:22 -4.26933 -32.64994 14661 ft 355 kts 30°
2026-04-22 00:22 -4.24739 -32.63825 14119 ft 351 kts 30°
2026-04-22 00:22 -4.22594 -32.62682 13603 ft 349 kts 30°
2026-04-22 00:22 -4.20450 -32.61539 13059 ft 349 kts 30°
2026-04-22 00:23 -4.18319 -32.60402 12527 ft 349 kts 30°
2026-04-22 00:23 -4.16166 -32.59253 11991 ft 348 kts 30°
2026-04-22 00:23 -4.14029 -32.58113 11456 ft 348 kts 30°
2026-04-22 00:23 -4.11900 -32.56979 10915 ft 344 kts 30°
2026-04-22 00:24 -4.09797 -32.55861 10446 ft 338 kts 30°
2026-04-22 00:24 -4.07737 -32.54767 10193 ft 325 kts 30°
2026-04-22 00:24 -4.05791 -32.53733 10052 ft 310 kts 30°
2026-04-22 00:24 -4.03907 -32.52730 9699 ft 304 kts 30°
2026-04-22 00:25 -4.02043 -32.51735 9278 ft 301 kts 30°
2026-04-22 00:25 -4.00202 -32.50752 8883 ft 297 kts 30°
2026-04-22 00:25 -3.98395 -32.49788 8498 ft 293 kts 30°
2026-04-22 00:25 -3.96582 -32.48821 8113 ft 289 kts 30°
2026-04-22 00:26 -3.94816 -32.47881 7738 ft 285 kts 30°
2026-04-22 00:26 -3.93081 -32.46955 7380 ft 282 kts 30°
2026-04-22 00:26 -3.91354 -32.46035 6997 ft 281 kts 29°
2026-04-22 00:26 -3.89609 -32.45106 6617 ft 279 kts 30°
2026-04-22 00:27 -3.87889 -32.44270 6261 ft 276 kts 22°
2026-04-22 00:27 -3.86027 -32.43911 5935 ft 267 kts 356°
2026-04-22 00:27 -3.84290 -32.44429 5845 ft 254 kts 331°
2026-04-22 00:27 -3.82911 -32.45451 5761 ft 242 kts 319°
2026-04-22 00:28 -3.81663 -32.46565 5642 ft 232 kts 319°
2026-04-22 00:28 -3.80482 -32.47621 5425 ft 229 kts 319°
2026-04-22 00:28 -3.79298 -32.48675 5213 ft 223 kts 319°
2026-04-22 00:28 -3.78141 -32.49703 4886 ft 223 kts 319°
2026-04-22 00:29 -3.76969 -32.50748 4507 ft 225 kts 319°
2026-04-22 00:29 -3.75802 -32.51789 4176 ft 224 kts 319°
2026-04-22 00:29 -3.74749 -32.52914 3859 ft 222 kts 300°
2026-04-22 00:29 -3.74348 -32.54354 3718 ft 210 kts 270°
2026-04-22 00:30 -3.74523 -32.55735 3494 ft 193 kts 255°
2026-04-22 00:30 -3.74993 -32.56975 3017 ft 191 kts 237°
2026-04-22 00:30 -3.75895 -32.57918 2555 ft 186 kts 211°
2026-04-22 00:30 -3.77017 -32.58496 2455 ft 177 kts 199°
2026-04-22 00:31 -3.78228 -32.58785 2475 ft 180 kts 179°
2026-04-22 00:31 -3.79457 -32.58571 2479 ft 178 kts 158°
2026-04-22 00:31 -3.80574 -32.58019 2477 ft 178 kts 146°
2026-04-22 00:31 -3.81474 -32.57192 2473 ft 174 kts 124°
2026-04-22 00:32 -3.82018 -32.56088 2478 ft 177 kts 109°
2026-04-22 00:32 -3.82358 -32.54921 2476 ft 176 kts 105°
2026-04-22 00:32 -3.82658 -32.53707 2396 ft 179 kts 104°
2026-04-22 00:32 -3.82957 -32.52505 2186 ft 168 kts 105°
2026-04-22 00:33 -3.83259 -32.51428 1905 ft 157 kts 108°
2026-04-22 00:33 -3.83562 -32.50396 1568 ft 152 kts 107°
2026-04-22 00:33 -3.83843 -32.49427 1293 ft 142 kts 107°
2026-04-22 00:33 -3.84126 -32.48465 1064 ft 143 kts 107°
2026-04-22 00:34 -3.84405 -32.47512 891 ft 143 kts 107°
2026-04-22 00:34 -3.84687 -32.46576 807 ft 138 kts 109°
2026-04-22 00:34 -3.85002 -32.45676 729 ft 136 kts 110°
2026-04-22 00:34 -3.85262 -32.44742 572 ft 141 kts 100°
2026-04-22 00:35 -3.85344 -32.43765 372 ft 142 kts 95°
2026-04-22 00:35 -3.85409 -32.42768 190 ft 140 kts 95°
2026-04-22 00:35 -3.85463 -32.41972 187 ft 78 kts 95°
2026-04-22 00:35 -3.85492 -32.41572 193 ft 36 kts 94°
2026-04-22 00:36 -3.85494 -32.41496 191 ft 2 kts 223°
2026-04-22 00:36 -3.85496 -32.41523 192 ft 4 kts 274°
2026-04-22 00:36 -3.85491 -32.41592 193 ft 16 kts 273°
2026-04-22 00:36 -3.85482 -32.41729 191 ft 22 kts 274°
2026-04-22 00:37 -3.85468 -32.41903 188 ft 27 kts 275°
2026-04-22 00:37 -3.85456 -32.42115 185 ft 32 kts 273°
2026-04-22 00:37 -3.85441 -32.42331 183 ft 28 kts 274°
2026-04-22 00:37 -3.85428 -32.42527 182 ft 25 kts 274°
2026-04-22 00:38 -3.85420 -32.42658 183 ft 14 kts 268°
2026-04-22 00:38 -3.85466 -32.42711 184 ft 11 kts 202°
2026-04-22 00:38 -3.85534 -32.42735 183 ft 4 kts 199°
2026-04-22 00:38 -3.85558 -32.42769 183 ft 7 kts 266°
2026-04-22 00:39 -3.85558 -32.42815 184 ft 4 kts 255°
2026-04-22 00:39 -3.85581 -32.42829 184 ft 2 kts 186°
2026-04-22 00:39 -3.85590 -32.42830 184 ft 0 kts 187°